Lumberton, NC

10:19 AM EST on February 27, 2017 (GMT -0500)
Lumberton Municipal

Weather History for KLBT - July, 2013

Change the Weather History Date:

Sunday, July 7, 2013

  Actual Average Record
Temperature  
Mean Temperature 80 °F 81 °F  
Max Temperature 91 °F 91 °F 102 °F (2010)
Min Temperature 69 °F 71 °F 66 °F (2001)
Degree Days  
Heating Degree Days 0 0  
Month to date heating degree days 0 0  
Since 1 June heating degree days 0 0  
Since 1 July heating degree days 0 0  
Cooling Degree Days 15 16  
Month to date cooling degree days 101 112  
Year to date cooling degree days 694 750  
Since 1 June cooling degree days 502 500  
Growing Degree Days 30 (Base 50)    
Moisture  
Dew Point 71 °F    
Average Humidity 76    
Maximum Humidity 100    
Minimum Humidity 52    
Precipitation  
Precipitation 0.00 in 0.14 in 0.11 in (2005)
Month to date precipitation 2.52 0.98  
Year to date precipitation 27.71 20.39  
Sea Level Pressure  
Sea Level Pressure 30.16 in    
Wind  
Wind Speed 5 mph (SSW)    
Max Wind Speed 13 mph    
Max Gust Speed 17 mph    
Visibility 9 miles    
Events      
T = Trace of Precipitation, MM = Missing Value Source: NWS Daily Summary

Daily Weather History Graph

Daily Weather History Graph

Search for Another Location

Airport or City:

Trip Planner

Search our weather history database for the weather conditions in past years. The results will help you decide how hot, cold, wet, or windy it might be!

Date:

Astronomy

Jul. 07, 2013 Rise Set
Actual Time 6:10 AM EDT 8:32 PM EDT
Civil Twilight 5:40 AM EDT 9:01 PM EDT
Nautical Twilight 5:04 AM EDT 9:37 PM EDT
Astronomical Twilight 4:25 AM EDT 10:16 PM EDT
Moon 5:42 AM EDT (7/7) 7:58 PM EDT (7/7)
Length of Visible Light 15h 20m
Length of Day
14h 22m
Waning Crescent, 0% of the Moon is Illuminated
Jul 7
Waning Crescent
Jul 8
New
Jul 15
First Quarter
Jul 22
Full
Jul 29
Last Quarter

Hourly Weather History & Observations

Time (EDT) Temp. Heat Index Dew Point Humidity Pressure Visibility Wind Dir Wind Speed Gust Speed Precip Events Conditions
12:54 AM 73.0 °F - 71.1 °F 93% 30.19 in 10.0 mi Calm Calm - N/A   Clear
1:54 AM 72.0 °F - 71.1 °F 97% 30.18 in 10.0 mi Calm Calm - N/A   Clear
2:54 AM 72.0 °F - 70.0 °F 93% 30.17 in 8.0 mi Calm Calm - N/A   Clear
3:54 AM 70.0 °F - 69.1 °F 97% 30.16 in 5.0 mi Calm Calm - N/A   Clear
4:54 AM 70.0 °F - 69.1 °F 97% 30.17 in 6.0 mi Calm Calm - N/A   Clear
5:23 AM 69.8 °F - 68.0 °F 94% 30.18 in 4.0 mi Calm Calm - N/A   Mostly Cloudy
5:35 AM 69.8 °F - 68.0 °F 94% 30.18 in 3.0 mi Calm Calm - N/A   Scattered Clouds
5:54 AM 70.0 °F - 68.0 °F 93% 30.18 in 8.0 mi Calm Calm - N/A   Clear
6:54 AM 70.0 °F - 69.1 °F 97% 30.18 in 7.0 mi SE 3.5 mph - N/A   Clear
7:54 AM 73.9 °F - 72.0 °F 93% 30.20 in 10.0 mi Calm Calm - 0.01 in   Partly Cloudy
8:54 AM 79.0 °F - 73.9 °F 84% 30.20 in 10.0 mi South 5.8 mph - N/A   Partly Cloudy
9:28 AM 80.6 °F 85.4 °F 73.4 °F 79% 30.20 in 10.0 mi SSW 8.1 mph - N/A   Overcast
9:54 AM 82.0 °F 87.4 °F 73.0 °F 74% 30.20 in 10.0 mi SSW 10.4 mph - N/A   Overcast
10:04 AM 82.4 °F 88.2 °F 73.4 °F 74% 30.20 in 10.0 mi SW 11.5 mph - N/A   Overcast
10:54 AM 82.9 °F 87.0 °F 70.0 °F 65% 30.20 in 10.0 mi SSW 9.2 mph - N/A   Overcast
11:54 AM 84.0 °F 89.0 °F 71.1 °F 65% 30.19 in 10.0 mi SSW 6.9 mph - N/A   Overcast
12:54 PM 87.1 °F 91.3 °F 69.1 °F 55% 30.17 in 10.0 mi Variable 6.9 mph - N/A   Clear
1:54 PM 89.1 °F 94.1 °F 70.0 °F 53% 30.15 in 10.0 mi SW 9.2 mph - N/A   Partly Cloudy
2:54 PM 89.1 °F 93.7 °F 69.1 °F 52% 30.14 in 10.0 mi SW 10.4 mph - N/A   Scattered Clouds
3:54 PM 90.0 °F 95.4 °F 70.0 °F 52% 30.12 in 10.0 mi SSW 8.1 mph - N/A   Partly Cloudy
4:54 PM 90.0 °F 96.4 °F 71.1 °F 54% 30.10 in 10.0 mi SSE 8.1 mph - N/A   Partly Cloudy
5:54 PM 88.0 °F 94.7 °F 72.0 °F 59% 30.09 in 10.0 mi South 9.2 mph - N/A   Partly Cloudy
6:54 PM 84.9 °F 91.4 °F 73.0 °F 67% 30.08 in 10.0 mi Variable 4.6 mph - N/A   Clear
7:54 PM 82.9 °F 88.0 °F 72.0 °F 69% 30.09 in 10.0 mi South 5.8 mph - N/A   Clear
8:54 PM 80.1 °F 83.6 °F 71.1 °F 74% 30.10 in 10.0 mi South 3.5 mph - N/A   Clear
9:54 PM 78.1 °F - 71.1 °F 79% 30.14 in 10.0 mi Calm Calm - N/A   Clear
10:54 PM 77.0 °F - 71.1 °F 82% 30.17 in 10.0 mi SSW 3.5 mph - N/A   Clear
11:54 PM 75.0 °F - 71.1 °F 87% 30.16 in 10.0 mi South 4.6 mph - N/A   Clear